Lid_Strength_Index
7 8 8 7 5 5 8 13 18 11 9 16 17 16 16 13 15 14 15 14 16 17 18 19 19 19 17 16 16 18 17 19 23 21 20 19 19 19 19 22 23 22 22 22
6 6 7 7 6 7 11 17 17 12 12 17 17 17 15 15 16 16 16 16 15 16 18 19 18 17 17 16 16 18 18 20 25 23 22 21 21 20 20 21 21 23 24 22
5 6 6 6 6 7 11 15 18 16 17 16 16 17 17 18 15 15 14 16 15 17 18 18 19 19 17 16 16 14 14 19 19 21 20 21 22 21 20 21 22 22 21 21
5 5 5 6 6 7 9 14 16 16 19 18 17 15 16 17 18 15 14 16 15 17 19 18 18 19 19 17 16 17 17 20 21 20 20 20 20 21 20 22 20 24 21 20
5 5 5 5 7 7 12 15 16 15 15 15 16 15 17 17 17 16 17 17 15 15 17 17 18 18 18 18 18 18 17 19 19 20 20 21 22 20 20 20 20 20 20 20
4 5 5 5 6 8 14 15 14 13 14 16 17 16 16 16 15 16 14 14 16 16 15 13 13 13 14 16 17 17 17 18 18 20 19 19 21 20 20 20 20 19 21 17
4 5 5 5 6 7 10 12 13 15 16 15 16 15 14 15 14 16 15 14 15 14 12 12 13 15 15 15 15 15 17 17 17 19 21 22 18 18 15 17 16 16 17 15
4 4 5 6 5 7 9 9 11 14 16 15 15 15 15 14 13 16 16 14 12 11 14 16 17 17 17 17 16 16 15 16 18 19 20 18 17 18 17 17 17 14 15 15
4 4 4 5 5 6 7 9 9 13 15 16 14 15 15 15 16 16 16 15 11 13 15 16 18 20 18 19 19 17 16 15 16 18 20 24 17 16 14 14 19 13 12 12
4 3 4 4 5 4 6 8 7 11 14 14 13 15 15 14 14 15 16 16 15 15 15 16 17 17 16 19 20 20 18 17 18 17 19 19 15 16 14 19 17 13 12 12
3 4 4 4 4 4 5 7 6 10 13 13 13 13 14 14 14 15 15 15 15 15 16 15 15 15 16 17 18 18 18 18 19 17 18 20 14 16 16 13 14 14 13 13
3 3 3 3 4 4 4 7 5 6 12 13 13 12 11 11 11 13 14 14 15 14 14 14 14 15 16 16 19 15 17 15 17 15 16 14 14 14 14 14 13 13 13 13
4 4 4 3 3 3 4 6 5 8 11 12 12 13 11 9 10 8 14 13 12 13 12 13 13 14 15 17 17 17 16 15 16 15 14 13 14 14 15 14 13 13 13 13
3 4 4 4 4 4 4 6 5 8 11 16 14 12 13 12 9 9 9 12 12 12 12 12 13 14 14 16 15 15 15 14 16 15 13 13 13 12 11 13 13 13 13 14
3 3 3 4 4 4 4 5 5 5 10 15 14 15 13 13 11 10 9 10 11 12 13 13 14 14 13 15 15 16 14 15 15 15 11 11 11 11 11 11 11 11 12 14
2 2 3 3 3 3 6 10 8 5 7 12 18 12 16 15 13 12 12 11 11 11 12 14 14 13 13 16 17 14 13 12 11 12 12 11 11 12 11 11 11 11 13 13
1 2 2 2 2 4 8 10 7 3 6 11 17 17 16 14 13 11 10 10 10 11 11 12 15 14 12 16 17 14 14 13 12 13 12 13 12 12 10 12 11 14 15 15
1 1 1 1 1 3 7 5 3 2 7 9 18 18 18 12 15 14 10 10 10 10 11 11 13 13 13 15 14 12 12 12 13 12 13 11 12 14 14 15 15 16 16 16
-0 -0 -0 2 5 7 6 2 2 3 7 12 15 18 20 13 15 14 11 13 16 12 12 13 12 12 14 14 12 12 12 13 13 12 14 16 15 14 15 15 17 16 14 17
-0 2 5 10 5 2 2 5 7 7 7 8 14 13 16 14 15 13 14 15 17 20 15 12 13 13 10 13 12 11 14 15 16 17 18 18 17 14 13 13 13 14 17 19
4 7 8 4 1 4 6 10 9 9 10 8 12 11 14 12 14 14 12 13 15 19 18 15 18 20 13 13 15 22 25 24 26 24 23 24 23 23 22 22 23 23 24 23
3 4 3 3 6 7 9 11 11 11 13 13 14 12 9 11 11 13 11 14 13 15 15 18 21 15 28 29 29 28 29 29 29 30 30 29 27 29 28 28 27 26 26 27
5 7 9 9 8 12 13 16 12 13 20 20 18 12 10 11 10 9 10 12 13 12 15 17 16 24 29 30 30 30 30 30 30 29 29 29 30 29 29 29 29 29 28 28
9 11 15 12 12 16 20 20 20 21 21 22 20 19 13 10 11 10 13 12 13 15 16 18 23 31 32 30 30 32 31 31 31 31 31 31 31 29 30 30 30 29 27 27
8 10 16 17 22 23 25 25 24 24 23 20 19 18 15 12 13 12 13 16 16 17 19 27 30 33 33 31 31 32 31 31 32 32 31 29 29 29 29 31 30 30 29 28
14 16 22 25 22 27 27 26 26 26 25 24 23 23 18 14 12 14 15 16 16 20 30 30 30 33 32 33 33 33 33 33 33 32 32 30 32 31 29 29 30 29 29 29
19 25 24 24 26 27 29 28 28 25 27 24 23 23 21 20 17 18 28 26 32 32 31 31 32 33 33 34 34 33 34 33 33 33 33 31 30 30 32 31 28 29 28 27